Regional Weather Roundup
Issued by NWS

Home | Current Version | Previous Version | Graphics & Text | Print | Product List | Glossary On
Versions: 1 2 3 4 5 6 7 8 9 10 11 12 13 14 15 16 17 18 19 20 21 22 23 24 25 26 27 28 29 30 31 32 33 34 35 36 37 38 39 40 41 42 43 44 45 46 47 48 49 50
000
ASUS45 KCYS 281010
RWRWY

WYOMING REGIONAL WEATHER ROUNDUP
NATIONAL WEATHER SERVICE CHEYENNE WY
400 AM MDT MON JUL 28 2014

NOTE:  "FAIR" INDICATES FEW OR NO CLOUDS BELOW 12,000 FEET
WITH NO SIGNIFICANT WEATHER AND/OR OBSTRUCTIONS TO VISIBILITY.

WYZ001-281100-
YELLOWSTONE NATIONAL PARK

CITY           SKY/WX    TMP DP  RH WIND       PRES   REMARKS
LK YELLOWSTONE   N/A     41  34  76 CALM      30.50F
W YELLOWSTONE  NOT AVBL

$$
WYZ002>013-054>058-071-098>099-281100-
NORTHERN WYOMING

CITY           SKY/WX    TMP DP  RH WIND       PRES   REMARKS
JACKSON        CLEAR     46  36  66 N7        30.39R
CODY           NOT AVBL
GREYBULL       CLEAR     63  38  39 CALM      30.24S
WORLAND        CLEAR     62  39  42 S8        30.25R
SHERIDAN       CLEAR     51  44  77 CALM      30.28F
BUFFALO        CLEAR     59  40  49 SE7       30.35F
GILLETTE       CLEAR     55  45  68 CALM      30.35F
HULETT         FAIR      52  48  87 MISG      30.36
NEWCASTLE      FAIR      55  43  62 N6        30.37

$$
WYZ014>020-022>026-101>103-281100-
CENTRAL WYOMING

CITY           SKY/WX    TMP DP  RH WIND       PRES   REMARKS
BIG PINEY      CLEAR     49  28  44 E7        30.44S
PINEDALE       SUNNY     45  34  65 W5        30.45R
DUBOIS         FAIR      48  28  46 NW8       30.46S
LANDER         CLEAR     64  33  31 SW5       30.33R
RIVERTON       CLEAR     61  38  42 NE7       30.34R
CASPER         CLEAR     53  40  61 NW8       30.36R
DOUGLAS        CLEAR     61  47  59 E13       30.34F

$$
WYZ021-027>030-104>119-281100-
SOUTHERN WYOMING

CITY           SKY/WX    TMP DP  RH WIND       PRES   REMARKS
EVANSTON       CLOUDY    65  22  19 CALM      30.39S
KEMMERER       SUNNY     61  30  31 N13       30.42S
FORT BRIDGER   FAIR      61  24  25 NE7       30.41S
ROCK SPRINGS   PTCLDY    61  44  53 E7        30.39R
DIXON          FAIR      59  46  60 E6        30.40R
RAWLINS        CLEAR     58  51  78 NE9       30.42S
SARATOGA       FAIR      52  46  82 SE5       30.44S
LARAMIE        CLEAR     54  53  97 SE7       30.45F
CHEYENNE       CLEAR     56  50  80 CALM      30.40F
TORRINGTON     CLEAR     60  48  64 E10       30.31S
PINE BLUFFS    FAIR      59  46  63 E5        30.36F

$$



USA.gov is the U.S. government's official web portal to all federal, state and local government web resources and services.